Weather History for Lamoni, IA

Change the Weather History Date:

Monday, March 12, 2012

  Actual Average Record
Temperature  
Mean Temperature 54 °F 38 °F  
Max Temperature 61 °F 48 °F 77 °F (1990)
Min Temperature 46 °F 28 °F 10 °F (1950)
Degree Days  
Heating Degree Days 11 27  
Month to date heating degree days 266 350  
Since 1 July heating degree days 4394 5067  
Cooling Degree Days 0 0  
Month to date cooling degree days 0 0  
Year to date cooling degree days 0 0  
Growing Degree Days 4 (Base 50)    
Moisture  
Dew Point 47 °F    
Average Humidity 79    
Maximum Humidity 93    
Minimum Humidity 64    
Precipitation  
Precipitation 0.05 in 0.07 in 0.72 in (1986)
Month to date precipitation 0.58 0.73  
Year to date precipitation 2.85  
Sea Level Pressure  
Sea Level Pressure 29.79 in    
Wind  
Wind Speed 9 mph (SSW)    
Max Wind Speed 18 mph    
Max Gust Speed 23 mph    
Visibility 10 miles    
Events Rain    
T = Trace of Precipitation, MM = Missing Value Source: NWS Daily Summary

Daily Weather History Graph

Daily Weather History Graph

Search for Another Location

Airport:

Trip Planner

Search our weather history database for the weather conditions in past years. The results will help you decide how hot, cold, wet, or windy it might be!

Date:

Astronomy

Mar. 12, 2012 Rise Set
Actual Time 7:31 AM CDT 7:19 PM CDT
Civil Twilight 7:04 AM CDT 7:46 PM CDT
Nautical Twilight 6:32 AM CDT 8:18 PM CDT
Astronomical Twilight 6:00 AM CDT 8:50 PM CDT
Moon No Moon Rise 9:51 AM CDT (3/12)
Length of Visible Light 12h 42m
Length of Day
11h 48m
Waning Gibbous, 76% of the Moon is Illuminated
Mar 12
Waning Gibbous
Mar 14
Last Quarter
Mar 22
New
Mar 30
First Quarter
Apr 6
Full

Hourly Weather History & Observations

Time (CDT) Temp. Windchill Dew Point Humidity Pressure Visibility Wind Dir Wind Speed Gust Speed Precip Events Conditions
12:26 AM 50.0 °F - 48.2 °F 94% 29.78 in 10.0 mi SSW 12.7 mph - 0.00 in Rain Light Rain
12:34 AM 50.0 °F - 48.2 °F 94% 29.78 in 10.0 mi SSW 13.8 mph - 0.00 in   Overcast
12:53 AM 50.0 °F - 48.0 °F 93% 29.78 in 10.0 mi SSW 11.5 mph - 0.00 in Rain Light Rain
1:07 AM 50.0 °F - 48.2 °F 94% 29.78 in 10.0 mi SSW 13.8 mph - 0.00 in Rain Light Rain
1:16 AM 50.0 °F - 48.2 °F 94% 29.78 in 10.0 mi SSW 13.8 mph - 0.00 in   Overcast
1:38 AM 50.0 °F - 48.2 °F 94% 29.78 in 10.0 mi SSW 17.3 mph - 0.00 in   Overcast
1:53 AM 48.9 °F - 46.9 °F 93% 29.79 in 10.0 mi SSW 13.8 mph - 0.00 in   Overcast
2:01 AM 48.2 °F - 46.4 °F 93% 29.78 in 10.0 mi SSW 13.8 mph - N/A   Overcast
2:14 AM 48.2 °F - 46.4 °F 93% 29.77 in 10.0 mi SSW 13.8 mph - N/A   Overcast
2:42 AM 48.2 °F - 46.4 °F 93% 29.77 in 10.0 mi SSW 15.0 mph - N/A   Mostly Cloudy
2:53 AM 48.9 °F - 46.0 °F 90% 29.78 in 10.0 mi SSW 15.0 mph - N/A   Mostly Cloudy
3:41 AM 48.2 °F - 46.4 °F 93% 29.76 in 10.0 mi SSW 11.5 mph - N/A   Overcast
3:53 AM 48.0 °F - 46.0 °F 93% 29.77 in 10.0 mi South 12.7 mph - N/A   Overcast
4:14 AM 48.2 °F - 46.4 °F 93% 29.75 in 6.0 mi SSW 15.0 mph - 0.02 in Rain Rain
4:53 AM 46.9 °F - 45.0 °F 93% 29.75 in 10.0 mi South 10.4 mph - 0.04 in   Overcast
6:37 AM 46.4 °F 41.9 °F 44.6 °F 93% 29.73 in 7.0 mi South 9.2 mph - 0.00 in Rain Light Rain
6:53 AM 46.0 °F 40.6 °F 45.0 °F 96% 29.74 in 10.0 mi South 11.5 mph - 0.01 in   Overcast
7:40 AM 46.4 °F 42.4 °F 44.6 °F 93% 29.74 in 10.0 mi South 8.1 mph - N/A   Overcast
7:48 AM 46.4 °F 42.4 °F 44.6 °F 93% 29.74 in 10.0 mi South 8.1 mph - N/A   Overcast
7:53 AM 46.0 °F 41.9 °F 45.0 °F 96% 29.75 in 10.0 mi South 8.1 mph - N/A   Overcast
8:10 AM 46.4 °F 42.9 °F 44.6 °F 93% 29.75 in 10.0 mi South 6.9 mph - N/A   Overcast
9:23 AM 50.0 °F - 48.2 °F 94% 29.75 in 10.0 mi SSW 11.5 mph - N/A   Scattered Clouds
9:34 AM 50.0 °F - 48.2 °F 94% 29.75 in 10.0 mi SW 9.2 mph - N/A   Mostly Cloudy
9:53 AM 50.0 °F - 46.9 °F 89% 29.76 in 10.0 mi SW 11.5 mph - N/A   Overcast
10:27 AM 51.8 °F - 48.2 °F 88% 29.76 in 10.0 mi SW 9.2 mph - N/A   Overcast
10:53 AM 51.1 °F - 48.0 °F 89% 29.78 in 10.0 mi SW 11.5 mph - N/A   Overcast
11:53 AM 53.1 °F - 46.9 °F 80% 29.78 in 10.0 mi SW 15.0 mph - N/A   Overcast
12:53 PM 55.0 °F - 48.0 °F 77% 29.78 in 10.0 mi SW 8.1 mph - N/A   Overcast
1:53 PM 55.9 °F - 48.0 °F 75% 29.77 in 10.0 mi SSW 15.0 mph - N/A   Mostly Cloudy
2:53 PM 55.9 °F - 48.0 °F 75% 29.79 in 10.0 mi WSW 11.5 mph - N/A   Overcast
3:53 PM 57.0 °F - 48.0 °F 72% 29.80 in 10.0 mi WSW 10.4 mph - N/A   Overcast
4:23 PM 59.0 °F - 48.2 °F 67% 29.80 in 10.0 mi West 11.5 mph - N/A   Scattered Clouds
4:53 PM 60.1 °F - 48.9 °F 67% 29.81 in 10.0 mi WSW 12.7 mph - N/A   Clear
5:53 PM 61.0 °F - 48.9 °F 64% 29.82 in 10.0 mi WSW 9.2 mph - N/A   Clear
6:53 PM 57.9 °F - 48.0 °F 70% 29.85 in 10.0 mi WSW 4.6 mph - N/A   Clear
7:53 PM 54.0 °F - 46.0 °F 75% 29.89 in 10.0 mi West 3.5 mph - N/A   Clear
8:53 PM 51.1 °F - 46.0 °F 83% 29.91 in 10.0 mi SW 3.5 mph - N/A   Clear
9:53 PM 54.0 °F - 46.9 °F 77% 29.93 in 10.0 mi SSW 3.5 mph - N/A   Clear
10:53 PM 51.1 °F - 46.0 °F 83% 29.95 in 10.0 mi SSW 6.9 mph - N/A   Clear
11:53 PM 48.0 °F - 45.0 °F 89% 29.96 in 10.0 mi SW 5.8 mph - N/A   Clear